Weather History for Patuxent River, MD

Change the Weather History Date:

Friday, January 3, 2014

  Actual Average Record
Temperature  
Mean Temperature 26 °F -  
Max Temperature 33 °F 41 °F 71 °F (2004)
Min Temperature 19 °F 27 °F 12 °F (1979)
Degree Days  
Heating Degree Days 39    
Moisture  
Dew Point 16 °F    
Average Humidity 70    
Maximum Humidity 92    
Minimum Humidity 42    
Precipitation  
Precipitation 0.03 in - - ()
Snow  
Snow 0.00 in - - ()
Snow Depth 2.00 in    
Sea Level Pressure  
Sea Level Pressure 29.97 in    
Wind  
Wind Speed 21 mph (NNW)    
Max Wind Speed 37 mph    
Max Gust Speed 51 mph    
Visibility 7 miles    
Events Snow    
Averages and records for this station are not official NWS values.
T = Trace of Precipitation, MM = Missing Value Source: NWS Daily Summary

Daily Weather History Graph

Daily Weather History Graph

Search for Another Location

Airport:

Trip Planner

Search our weather history database for the weather conditions in past years. The results will help you decide how hot, cold, wet, or windy it might be!

Date:

Astronomy

Jan. 03, 2014 Rise Set
Actual Time 7:22 AM EST 4:57 PM EST
Civil Twilight 6:53 AM EST 5:27 PM EST
Nautical Twilight 6:20 AM EST 6:00 PM EST
Astronomical Twilight 5:48 AM EST 6:32 PM EST
Moon 8:49 AM EST (1/3) 8:01 PM EST (1/3)
Length of Visible Light 10h 33m
Length of Day
9h 35m
Waxing Crescent, 8% of the Moon is Illuminated
Jan 3
Waxing Crescent
Jan 7
First Quarter
Jan 15
Full
Jan 24
Last Quarter
Jan 30
New

Hourly Weather History & Observations

Time (EST) Temp. Windchill Dew Point Humidity Pressure Visibility Wind Dir Wind Speed Gust Speed Precip Events Conditions
12:06 AM 33.1 °F 23.9 °F 30.9 °F 92% 29.57 in 1.2 mi NNW 12.7 mph - 0.01 in Snow Light Snow
12:37 AM 32.0 °F 19.8 °F 30.0 °F 92% 29.59 in 1.2 mi NNW 20.7 mph 28.8 mph 0.02 in Snow Light Snow
12:43 AM 32.0 °F 20.8 °F 28.9 °F 88% 29.58 in 2.0 mi North 17.3 mph 28.8 mph 0.02 in Snow Light Snow
12:48 AM 32.0 °F 20.5 °F 28.4 °F 87% 29.59 in 3.0 mi NNW 18.4 mph 23.0 mph 0.02 in Snow Light Snow
12:52 AM 32.0 °F 20.5 °F 28.9 °F 88% 29.58 in 4.0 mi North 18.4 mph 23.0 mph 0.02 in   Overcast
1:29 AM 32.0 °F 19.2 °F 28.0 °F 85% 29.60 in 6.0 mi NNW 23.0 mph - 0.00 in Snow Light Snow
1:52 AM 30.9 °F 18.4 °F 27.0 °F 85% 29.63 in 3.0 mi NNW 20.7 mph - 0.00 in Snow Light Snow
1:56 AM 30.9 °F 18.7 °F 27.0 °F 85% 29.63 in 2.0 mi NNW 19.6 mph - 0.00 in Snow Light Snow
2:07 AM 30.9 °F 19.1 °F 27.0 °F 85% 29.64 in 1.5 mi NNW 18.4 mph - 0.00 in Snow Light Snow
2:20 AM 30.9 °F 17.8 °F 27.0 °F 85% 29.65 in 1.2 mi NW 23.0 mph 28.8 mph 0.01 in Snow Light Snow
2:28 AM 30.0 °F 17.5 °F 27.0 °F 88% 29.66 in 2.0 mi NNW 19.6 mph - 0.01 in Snow Light Snow
2:41 AM 30.0 °F 17.9 °F 27.0 °F 88% 29.67 in 1.8 mi NNW 18.4 mph - 0.01 in Snow Light Snow
2:52 AM 30.0 °F 17.2 °F 27.0 °F 88% 29.68 in 1.8 mi NNW 20.7 mph - 0.01 in Snow Light Snow
3:00 AM 30.0 °F 15.7 °F 26.1 °F 85% 29.68 in 2.0 mi NNW 26.5 mph 35.7 mph 0.00 in Snow Light Snow
3:12 AM 28.9 °F 14.8 °F 25.0 °F 85% 29.69 in 2.5 mi NNW 24.2 mph 32.2 mph 0.00 in Snow Light Snow
3:21 AM 28.9 °F 14.0 °F 24.1 °F 82% 29.71 in 4.0 mi NNW 27.6 mph 32.2 mph 0.00 in Snow Light Snow
3:52 AM 27.0 °F 11.9 °F 21.0 °F 78% 29.74 in 10.0 mi NNW 25.3 mph 34.5 mph 0.00 in   Overcast
4:01 AM 27.0 °F 13.9 °F 21.0 °F 78% 29.75 in 10.0 mi NNW 18.4 mph 31.1 mph N/A   Overcast
4:35 AM 27.0 °F 11.9 °F 21.9 °F 81% 29.78 in 7.0 mi NNW 25.3 mph 32.2 mph 0.00 in Snow Light Snow
4:52 AM 26.1 °F 8.8 °F 19.0 °F 75% 29.81 in 5.0 mi NW 33.4 mph 43.7 mph 0.00 in Snow Light Snow
5:52 AM 23.0 °F 3.9 °F 15.1 °F 72% 29.91 in 10.0 mi NW 36.8 mph 50.6 mph 0.00 in   Overcast
6:00 AM 23.0 °F 4.6 °F 15.1 °F 72% 29.92 in 10.0 mi NNW 33.4 mph 50.6 mph 0.00 in   Overcast
6:11 AM 23.0 °F 6.0 °F 15.1 °F 72% 29.92 in 10.0 mi NW 27.6 mph 38.0 mph 0.00 in   Overcast
6:30 AM 21.9 °F 4.2 °F 14.0 °F 72% 29.94 in 10.0 mi NW 28.8 mph 48.3 mph 0.00 in   Mostly Cloudy
6:37 AM 21.9 °F 6.5 °F 15.1 °F 75% 29.95 in 10.0 mi NW 20.7 mph 33.4 mph 0.00 in   Mostly Cloudy
6:52 AM 21.9 °F 4.8 °F 14.0 °F 72% 29.97 in 8.0 mi NW 26.5 mph 35.7 mph 0.00 in Snow Light Snow
6:57 AM 21.9 °F 4.2 °F 14.0 °F 72% 29.98 in 7.0 mi NW 28.8 mph 40.3 mph 0.00 in   Overcast
7:23 AM 19.9 °F 0.4 °F 10.9 °F 68% 30.01 in 9.0 mi NW 33.4 mph 43.7 mph 0.00 in   Overcast
7:52 AM 19.0 °F -0.8 °F 10.0 °F 68% 30.04 in 10.0 mi NW 33.4 mph 43.7 mph 0.00 in   Mostly Cloudy
8:52 AM 19.9 °F 1.3 °F 9.0 °F 62% 30.12 in 10.0 mi NNW 29.9 mph 38.0 mph N/A   Scattered Clouds
9:52 AM 19.9 °F 1.0 °F 9.0 °F 62% 30.17 in 10.0 mi NW 31.1 mph 39.1 mph N/A   Scattered Clouds
10:52 AM 21.0 °F 3.9 °F 10.9 °F 65% 30.21 in 10.0 mi NNW 25.3 mph 33.4 mph N/A   Scattered Clouds
11:52 AM 21.9 °F 5.1 °F 7.0 °F 53% 30.23 in 10.0 mi NNW 25.3 mph 34.5 mph N/A   Partly Cloudy
12:52 PM 23.0 °F 8.3 °F 7.0 °F 50% 30.24 in 10.0 mi NNW 19.6 mph 32.2 mph N/A   Partly Cloudy
1:52 PM 24.1 °F 9.0 °F 8.1 °F 51% 30.27 in 10.0 mi NNW 21.9 mph 33.4 mph N/A   Partly Cloudy
2:52 PM 24.1 °F 9.0 °F 7.0 °F 48% 30.31 in 10.0 mi NW 21.9 mph 31.1 mph N/A   Partly Cloudy
3:52 PM 24.1 °F 9.4 °F 3.9 °F 42% 30.35 in 10.0 mi NNW 20.7 mph 28.8 mph N/A   Partly Cloudy
4:52 PM 23.0 °F 10.1 °F 3.9 °F 44% 30.38 in 10.0 mi NNW 15.0 mph - N/A   Partly Cloudy
5:52 PM 21.9 °F 9.2 °F 3.0 °F 44% 30.42 in 10.0 mi NNW 13.8 mph - N/A   Clear
6:52 PM 21.0 °F 6.6 °F 3.0 °F 46% 30.45 in 10.0 mi NNW 17.3 mph - N/A   Clear
7:52 PM 21.0 °F 8.1 °F 1.9 °F 44% 30.47 in 10.0 mi NNW 13.8 mph - N/A   Clear
8:52 PM 21.0 °F 8.1 °F 1.0 °F 42% 30.50 in 10.0 mi NNW 13.8 mph - N/A   Clear
9:52 PM 21.0 °F 9.9 °F 1.0 °F 42% 30.51 in 10.0 mi North 10.4 mph - N/A   Clear
10:52 PM 21.0 °F 9.9 °F 3.0 °F 46% 30.51 in 10.0 mi NNW 10.4 mph - N/A   Clear
11:52 PM 19.9 °F 9.3 °F 3.0 °F 48% 30.51 in 10.0 mi NNW 9.2 mph - N/A   Clear